Location: El Cambur
(10.2851°N, 67.4340°W)
Time: 11:17:45
(UTC+00:00)

Cosmos 1340 - Pass Details

Date: 13 June 2024
Orbit: 427 x 429 km, 81.2° (Epoch: 22 July)

Event Time Altitude Azimuth Distance (km) Brightness Sun altitude
Rises 23:36:09 0° 5° (N) 2,383 6.4 -10.7°
Reaches altitude 10° 23:38:16 10° 13° (NNE) 1,516 5.2 -11.2°
Maximum altitude 23:41:23 39° 84° (E) 648 2.8 -11.9°
Enters shadow 23:43:36 17° 148° (SSE) 1,167 4.0 -12.4°
